DW8338 Weather Reports


time (UTC)temp
F
wind
direction
speed
knots
gust
knots
rain 1hr
in
rain 24hr
in
rain mn
in
humidity
%
barometer
mb
20260504023804 59 348 2.6 4.3 0.00 0.00 0.00 83 1012.8
20260504023304 60 1 1.7 2.6 0.00 0.00 0.00 83 1012.8
20260504022804 60 7 1.7 2.6 0.00 0.00 0.00 83 1012.8
20260504022305 60 4 1.7 2.6 0.00 0.00 0.00 83 1012.8
20260504021304 60 338 0.0 2.6 0.00 0.00 0.00 82 1012.9
20260504020804 60 352 0.0 0.0 0.00 0.00 0.00 82 1012.9
20260504020304 60 215 0.0 0.0 0.00 0.00 0.00 82 1013.0
20260504014804 60 173 0.0 0.0 0.00 0.00 0.00 82 1012.9
20260504014304 60 169 0.0 1.7 0.00 0.00 0.00 82 1013.0
20260504013804 60 201 1.7 2.6 0.00 0.00 0.00 82 1013.1
20260504013304 60 179 0.9 2.6 0.00 0.00 0.00 82 1013.1
20260504012804 60 159 1.7 2.6 0.00 0.00 0.00 81 1013.2
20260504011804 60 166 1.7 2.6 0.00 0.00 0.00 81 1013.2
20260504010804 60 188 2.6 4.3 0.00 0.00 0.00 81 1013.2
20260504010304 60 186 2.6 6.1 0.00 0.00 0.00 81 1013.2
20260504005804 60 169 2.6 6.1 0.00 0.00 0.00 81 1013.3
20260504005305 60 179 4.3 7.0 0.00 0.00 0.00 81 1013.3
20260504004804 60 180 4.3 7.0 0.00 0.00 0.00 81 1013.3
20260504003804 60 182 3.5 6.1 0.00 0.00 0.00 81 1013.4
20260504003304 61 190 2.6 6.1 0.00 0.00 0.00 81 1013.4
20260504002804 61 186 4.3 6.1 0.00 0.00 0.00 81 1013.5
20260504002304 61 189 4.3 6.1 0.00 0.00 0.00 81 1013.6
20260504001804 61 184 4.3 6.1 0.00 0.00 0.00 81 1013.6
20260504001304 61 193 4.3 6.1 0.00 0.00 0.00 81 1013.6
20260504000804 61 177 3.5 6.1 0.00 0.00 0.00 81 1013.7
20260503235304 62 169 2.6 6.1 0.00 0.00 0.00 80 1013.7
20260503234804 62 174 2.6 4.3 0.00 0.00 0.00 80 1013.7
20260503234304 62 190 4.3 5.2 0.00 0.00 0.00 80 1013.7
20260503233304 61 202 2.6 5.2 0.00 0.00 0.00 80 1013.9
20260503232804 61 179 3.5 4.3 0.00 0.00 0.00 79 1013.9
20260503232305 61 191 4.3 6.1 0.00 0.00 0.00 79 1013.9
20260503231804 61 183 2.6 5.2 0.00 0.00 0.00 79 1014.0
20260503231304 61 179 3.5 5.2 0.00 0.00 0.00 79 1014.0
20260503230804 61 154 2.6 5.2 0.00 0.00 0.00 79 1013.9
20260503230304 61 195 2.6 5.2 0.00 0.00 0.00 78 1013.9
20260503225804 61 155 2.6 5.2 0.00 0.00 0.00 78 1014.0
20260503225304 62 166 4.3 5.2 0.00 0.00 0.00 78 1014.1
20260503224804 62 163 2.6 5.2 0.00 0.00 0.00 78 1014.1
20260503224304 62 179 5.2 7.0 0.00 0.00 0.00 78 1014.1
20260503223804 62 182 1.7 4.3 0.00 0.00 0.00 77 1014.1
20260503223304 62 166 2.6 5.2 0.00 0.00 0.00 78 1014.1
20260503222804 62 175 3.5 7.0 0.00 0.00 0.00 77 1014.1
20260503222304 62 163 1.7 4.3 0.00 0.00 0.00 77 1014.1
20260503221304 62 159 1.7 5.2 0.00 0.00 0.00 77 1014.0
20260503220804 62 177 4.3 6.1 0.00 0.00 0.00 76 1014.0
20260503215804 62 181 2.6 6.1 0.00 0.00 0.00 76 1014.0
20260503215304 62 179 3.5 7.0 0.00 0.00 0.00 76 1014.0
20260503214804 62 184 3.5 7.0 0.00 0.00 0.00 75 1014.0
20260503214304 63 180 1.7 4.3 0.00 0.00 0.00 75 1013.9
20260503212804 63 173 3.5 5.2 0.00 0.00 0.00 74 1013.9
20260503212305 63 179 2.6 6.1 0.00 0.00 0.00 74 1013.9
20260503211804 63 180 2.6 5.2 0.00 0.00 0.00 74 1013.9
20260503211304 63 206 2.6 5.2 0.00 0.00 0.00 73 1013.9
20260503210804 63 231 2.6 6.1 0.00 0.00 0.00 74 1013.9
20260503205304 63 234 2.6 6.1 0.00 0.00 0.00 74 1013.7
20260503204803 63 244 4.3 8.7 0.00 0.00 0.00 73 1013.6
20260503204304 63 261 2.6 7.0 0.00 0.00 0.00 73 1013.6
20260503203804 63 232 2.6 5.2 0.00 0.00 0.00 74 1013.6
20260503203303 63 248 3.5 7.8 0.00 0.00 0.00 73 1013.5
20260503202804 64 219 2.6 7.8 0.00 0.00 0.00 73 1013.5
20260503201804 64 226 4.3 7.8 0.00 0.00 0.00 72 1013.3
20260503200804 64 234 4.3 10.4 0.00 0.00 0.00 72 1013.1
20260503200304 64 226 5.2 10.4 0.00 0.00 0.00 71 1013.0
20260503195304 64 247 4.3 10.4 0.00 0.00 0.00 70 1012.9
20260503194304 65 238 6.1 11.3 0.00 0.00 0.00 69 1012.8
20260503193303 65 251 5.2 11.3 0.00 0.00 0.00 68 1012.6
20260503192804 65 226 6.1 11.3 0.00 0.00 0.00 67 1012.6
20260503192305 66 234 5.2 10.4 0.00 0.00 0.00 67 1012.7
20260503190804 66 244 6.1 10.4 0.00 0.00 0.00 66 1012.6
20260503190304 66 248 6.1 10.4 0.00 0.00 0.00 65 1012.4
20260503185804 67 242 7.8 12.2 0.00 0.00 0.00 64 1012.4
20260503185305 67 246 4.3 7.0 0.00 0.00 0.00 63 1012.4
20260503184803 67 232 6.1 12.2 0.00 0.00 0.00 63 1012.4
20260503183804 68 242 7.8 12.2 0.00 0.00 0.00 61 1012.3
20260503183304 68 220 6.1 11.3 0.00 0.00 0.00 59 1012.3
20260503182804 68 232 6.1 13.9 0.00 0.00 0.00 59 1012.3
20260503182305 68 220 7.8 13.0 0.00 0.00 0.00 57 1012.3
20260503181804 69 240 7.8 13.0 0.00 0.00 0.00 58 1012.2
20260503180304 70 222 9.6 15.6 0.00 0.00 0.00 59 1012.2
20260503175803 70 227 8.7 13.0 0.00 0.00 0.00 58 1012.1
20260503175304 70 211 8.7 13.0 0.00 0.00 0.00 59 1012.0
20260503174804 71 240 8.7 13.9 0.00 0.00 0.00 59 1012.0
20260503174304 71 205 6.1 13.0 0.00 0.00 0.00 58 1012.0
20260503173804 71 236 7.8 14.8 0.00 0.00 0.00 57 1012.0
20260503173304 71 228 10.4 15.6 0.00 0.00 0.00 57 1012.1
20260503172803 71 208 7.8 12.2 0.00 0.00 0.00 57 1012.0
20260503172305 71 222 8.7 15.6 0.00 0.00 0.00 57 1012.1
20260503171804 72 225 7.8 17.4 0.00 0.00 0.00 57 1012.0
20260503171304 72 222 6.1 11.3 0.00 0.00 0.00 55 1012.0
20260503170804 72 238 8.7 15.6 0.00 0.00 0.00 54 1012.0
20260503150804 74 267 8.7 13.9 0.00 0.00 0.00 48 1012.2
20260503150304 74 233 10.4 17.4 0.00 0.00 0.00 48 1012.1
20260503131304 74 237 7.8 11.3 0.00 0.00 0.00 54 1013.0
20260503130803 73 232 7.8 14.8 0.00 0.00 0.00 54 1013.0
20260503130304 74 249 5.2 10.4 0.00 0.00 0.00 54 1013.0
20260503110804 72 220 4.3 8.7 0.00 0.00 0.00 58 1014.1
20260503110304 72 228 5.2 10.4 0.00 0.00 0.00 59 1014.1
20260503090304 67 267 4.3 7.8 0.00 0.00 0.00 76 1014.3
20260503081304 65 165 2.6 5.2 0.00 0.00 0.00 82 1014.3
20260503080804 64 211 2.6 4.3 0.00 0.00 0.00 82 1014.3
20260503080304 64 248 2.6 4.3 0.00 0.00 0.00 82 1014.3
20260503072804 63 301 0.9 2.6 0.00 0.00 0.00 87 1014.1
20260503072305 63 264 1.7 2.6 0.00 0.00 0.00 87 1014.1
20260503071804 63 305 0.9 2.6 0.00 0.00 0.00 87 1014.1
20260503071304 63 257 1.7 2.6 0.00 0.00 0.00 87 1014.1
20260503070804 63 228 1.7 2.6 0.00 0.00 0.00 87 1014.1
20260503070304 63 265 2.6 2.6 0.00 0.00 0.00 87 1014.1
20260503060304 63 247 1.7 2.6 0.00 0.00 0.00 87 1013.9
20260503054804 63 191 0.9 2.6 0.00 0.00 0.00 87 1013.8
20260503054303 63 208 1.7 2.6 0.00 0.00 0.00 87 1013.7
20260503053304 63 233 0.9 2.6 0.00 0.00 0.00 87 1013.5
20260503052804 63 168 0.9 2.6 0.00 0.00 0.00 87 1013.5
20260503052305 63 190 1.7 2.6 0.00 0.00 0.00 87 1013.6
20260503051803 63 156 1.7 4.3 0.00 0.00 0.00 87 1013.6
20260503051303 63 225 1.7 4.3 0.00 0.00 0.00 87 1013.6
20260503050804 63 232 2.6 4.3 0.00 0.00 0.00 88 1013.6
20260503050304 63 187 0.9 1.7 0.00 0.00 0.00 88 1013.6
20260503045804 62 259 1.7 2.6 0.00 0.00 0.00 88 1013.6
20260503045305 62 244 1.7 2.6 0.00 0.00 0.00 88 1013.6
20260503044804 62 244 1.7 2.6 0.00 0.00 0.00 87 1013.5
20260503044304 62 231 2.6 4.3 0.00 0.00 0.00 87 1013.5
20260503043803 62 220 5.2 6.1 0.00 0.00 0.00 87 1013.5
20260503043304 63 228 2.6 4.3 0.00 0.00 0.00 87 1013.5
20260503042804 63 205 2.6 2.6 0.00 0.00 0.00 87 1013.5
20260503042305 63 221 1.7 2.6 0.00 0.00 0.00 87 1013.6
20260503041804 63 198 2.6 5.2 0.00 0.00 0.00 87 1013.6
20260503041303 63 222 2.6 5.2 0.00 0.00 0.00 86 1013.6
20260503040804 63 189 2.6 4.3 0.00 0.00 0.00 86 1013.6
20260503040304 63 208 1.7 2.6 0.00 0.00 0.00 86 1013.8
20260503035804 63 198 2.6 4.3 0.00 0.00 0.00 86 1013.7
20260503035305 63 191 1.7 2.6 0.00 0.00 0.00 86 1013.7
20260503034804 63 203 0.9 2.6 0.00 0.00 0.00 86 1013.8
20260503032803 63 191 0.9 2.6 0.00 0.00 0.00 85 1013.8
20260503032304 63 157 0.0 1.7 0.00 0.00 0.00 85 1013.8
20260503031804 63 133 0.9 2.6 0.00 0.00 0.00 85 1013.9
20260503031303 63 200 0.9 2.6 0.00 0.00 0.00 85 1013.9
20260503030804 63 163 1.7 2.6 0.00 0.00 0.00 85 1014.0
20260503030304 63 196 0.9 2.6 0.00 0.00 0.00 85 1014.2
20260503025804 63 228 1.7 2.6 0.00 0.00 0.00 85 1014.2
20260503024804 63 183 1.7 2.6 0.00 0.00 0.00 85 1014.0